ONEWEB-0027 (45432 NORAD) Tracking and Keplerian Element Data

This shows tracking and keplerian element data for the satellite.

Feedback or suggestion? Click here.




ElementValue
Catalog45432
NameONEWEB-0027
Epoch Orbit3237
Epoch Day297.91667824
Epoch Year2020
RAAN70.1915
Inclination87.5632
Eccentricity0.0024714
Argument of Perigee233.755
Mean Anonmoly125.9028
Mean Motion14.89925044
Decay Rate-0.00024944
L11 45432U 20020J 20297.91667824 -.00024944 00000-0 -25929-2 0 9999
L22 45432 87.5632 70.1915 0024714 233.7550 125.9028 14.89925044 32375

Live tracking and technical data element details for ONEWEB-0027 (NORAD 45432). ONEWEB-0027 can be tracked NOW for your location showing map with azimuth and elevation plus other details from your city location.

Track the satellite on the map from your city or location and see movement details for azimuth, elevation, latitude, longitude, range, height, and movement on the map or in text.







IsCatalogInMostPopularTable: catalog: 45432, numindb: 59
Update: records affected: 1



GetName: 45432 ONEWEB-0027

Hit Count: updated at: Sun, 25 Oct 2020 00:05:26 GMT